Location: Biskupice Kocurów
(50.7053°N, 19.2840°E)
Time: 12:37:19
(UTC+00:00)

Daily predictions for brighter satellites

Satellite Brightness Start Highest point End
(mag) Time Altitude Azimuth Time Altitude Azimuth Time Altitude Azimuth
NOSS 3-2 (A) 4.1 15:08:03 10° S 15:12:24 30° ESE 15:17:25 10° NE
Cosmos 2026 Rocket 4.0 15:08:04 10° N 15:14:19 79° E 15:20:37 10° SSE
Cosmos 1626 Rocket 4.2 15:11:27 10° N 15:15:25 33° ENE 15:19:21 10° SE
SMAP 3.6 15:13:03 10° SE 15:17:19 38° ENE 15:21:38 10° N
Cosmos 1892 Rocket 3.7 15:13:46 10° NNW 15:18:15 84° W 15:22:42 10° S
Cosmos 2297 4.3 15:12:49 10° SW 15:18:22 55° NW 15:23:57 10° NNE
Cosmos 1634 Rocket 4.2 15:13:37 10° SSE 15:19:35 53° E 15:25:34 10° NNE
Thor Agena Rocket 3.7 15:15:07 10° SE 15:20:11 53° ENE 15:25:12 10° N
CZ-2D R/B 4.0 15:20:58 10° ESE 15:23:22 20° ENE 15:25:47 10° NNE
Landsat 7 4.4 15:19:21 10° SE 15:23:31 34° ENE 15:27:43 10° N
Cosmos 2151 4.1 15:21:35 10° NNE 15:24:54 22° ENE 15:28:12 10° ESE
BREEZE-M DEB (TANK) 3.0 15:23:42 10° WSW 15:26:11 68° SSE 15:32:24 10° E
Cosmos 2297 Rocket 2.6 15:22:04 10° NNW 15:27:28 42° NE 15:32:50 10° ESE
BlueWalker 3 1.8 15:25:47 10° WNW 15:29:25 84° SSW 15:33:03 10° ESE
UNK 4.4 15:26:13 10° NNE 15:30:26 35° E 15:34:38 10° SSE
Meteor 1-27 4.3 15:25:25 10° S 15:31:10 66° E 15:36:53 10° NNE
Cosmos 1656 4.5 15:26:42 10° SSE 15:31:40 33° ESE 15:36:42 10° NE
Cosmos 1743 3.4 15:30:14 10° NNE 15:32:58 24° ENE 15:35:41 10° SE
ATLAS CENTAUR R/B 1.1 15:30:55 10° NNW 15:34:04 40° NE 15:37:06 10° ESE
Lacrosse 4 Rocket 1.3 15:30:18 10° SW 15:34:23 84° NW 15:38:26 10° NE
Cosmos 1544 Rocket 4.2 15:30:33 10° SSE 15:34:32 35° E 15:38:33 10° NNE
Cosmos 1484 Rocket 2.7 15:32:43 10° S 15:36:14 78° W 15:39:45 10° NNW
Cosmos 2279 Rocket 4.2 15:31:15 10° SSE 15:37:11 50° E 15:43:10 10° NNE
Cosmos 1092 Rocket 4.1 15:31:09 10° N 15:37:22 83° W 15:43:29 10° S
Iridium 51 3.6 15:40:36 10° S 15:43:41 76° E 15:46:53 10° N
Meteor 1-28 Rocket 2.8 15:40:41 10° NNE 15:44:03 71° ESE 15:47:23 10° S
CZ-4C R/B 2.9 15:42:27 10° NW 15:48:52 57° NE 15:56:58 10° ESE
IGS 5A 3.6 15:47:11 10° S 15:51:08 72° WSW 15:55:07 10° NNW
Cosmos 724 4.4 15:45:55 10° NW 15:51:58 62° NE 15:57:51 10° SE
COSMO-SKYMED 1 4.4 15:52:51 12° E 15:52:51 12° E 15:53:47 10° ESE
Lacrosse 5 rocket 1.0 15:48:23 10° WSW 15:52:09 87° NNW 15:54:52 17° ENE
MOS 1 Rocket 3.7 15:47:54 10° SE 15:52:30 45° ENE 15:57:22 10° N
Cosmos 1455 Rocket 3.9 15:49:04 10° SSW 15:53:16 51° WNW 15:57:32 10° N
Cosmos 1602 Rocket 3.9 15:49:05 10° N 15:53:18 43° ENE 15:57:28 10° SSE
SAR-Lupe-4 3.6 15:51:09 10° SSE 15:54:37 54° ENE 15:58:06 10° N
Cosmos 2084 3.8 15:50:30 10° WSW 15:54:39 59° NW 15:58:08 14° NE
Cosmos 1570 Rocket 4.1 15:51:35 10° NNW 15:56:58 83° WSW 16:02:16 10° SSE
Cosmos 1867 3.9 15:52:16 10° NW 15:57:32 44° NE 16:02:43 10° ESE
Cosmos 2084 Rocket 3.8 15:54:26 10° NW 15:58:28 42° NE 16:01:57 13° ESE
IRS-P3 4.2 15:55:12 10° SE 16:00:21 53° ENE 16:05:32 10° N
Cosmos 1315 Rocket 3.2 15:56:47 10° SSW 16:00:34 61° WNW 16:04:23 10° N
SAR-Lupe-1 4.1 15:58:19 10° SSE 16:01:51 57° ENE 16:05:24 10° N
CZ-2D R/B 4.3 16:00:14 10° SE 16:03:50 29° ENE 16:07:27 10° N
NOSS 2-2 (D) 3.0 16:04:01 10° SSW 16:07:15 51° SE 16:08:38 27° ENE
CENTAUR R/B 2.8 16:01:31 10° WSW 16:07:18 66° NW 16:13:45 14° NE
ERS-1 4.4 16:03:12 10° SSE 16:08:12 69° ENE 16:13:10 10° N
YAOGAN 1 3.4 16:04:39 10° ESE 16:08:14 27° ENE 16:11:49 10° N
Cosmos 1782 2.4 16:04:49 10° S 16:08:24 70° E 16:12:00 10° NNE
Cosmos 2263 Rocket 3.1 16:04:17 10° NNW 16:09:09 28° NE 16:12:02 19° E
Cosmos 1486 Rocket 4.2 16:05:45 10° S 16:10:46 51° ESE 16:14:56 15° NE
Cosmos 2266 Rocket 3.9 16:05:36 10° N 16:11:45 61° ENE 16:17:45 10° SSE
IRIDIUM 106 4.3 16:07:42 10° N 16:12:55 63° E 16:18:05 10° SSE
SL-16 R/B 3.0 16:07:05 10° NNE 16:13:15 64° WNW 16:19:23 10° SSW
Cosmos 1607 3.9 16:08:08 10° NW 16:14:23 79° NE 16:20:40 10° SE
Cosmos 2360 4.4 16:09:09 10° S 16:14:39 52° ESE 16:18:51 17° NE
Cosmos 405 Rocket 3.4 16:11:44 10° NNW 16:14:54 46° W 16:18:00 10° S
Cosmos 1733 2.5 16:13:09 10° NNW 16:15:02 46° W 16:16:53 10° S
Cosmos 1356 Rocket 4.4 16:11:35 10° SSW 16:15:29 46° WNW 16:19:27 10° N
NOSS 2-2 (E) 3.0 16:13:07 10° SSW 16:16:22 50° SE 16:17:21 34° ENE
Cosmos 2227 Rocket 2.4 16:13:01 10° NNW 16:18:27 46° NE 16:23:51 10° SE
SJ-12 3.7 16:17:00 10° SSE 16:20:47 85° WSW 16:24:36 10° NNW
USA 215 3.5 16:17:05 20° ENE 16:21:33 54° N 16:27:54 10° WNW
Cosmos 773 Rocket 4.3 16:17:48 10° NNW 16:23:00 71° WSW 16:28:11 10° SSE
SJ-6F 4.2 16:19:26 10° SSE 16:23:22 76° ENE 16:27:23 10° N
Cosmos 1933 3.7 16:20:31 10° SSE 16:24:02 35° E 16:24:47 32° ENE
Cosmos 2369 Rocket 4.0 16:19:35 10° W 16:24:07 24° NW 16:28:42 10° NNE
Cosmos 2228 4.2 16:23:40 10° SW 16:27:42 42° WNW 16:31:47 10° N
Cosmos 1825 Rocket 3.7 16:23:26 10° N 16:27:42 48° ENE 16:31:53 10° SSE
ARIANE 5 R/B 2.8 16:23:25 10° S 16:28:26 70° WSW 16:33:34 10° NNW
Cosmos 1758 Rocket 4.2 16:24:37 10° NNW 16:28:52 56° W 16:33:03 10° S
SPOT 1/Viking Rocket 3.5 16:26:09 10° SSE 16:31:17 64° ENE 16:36:27 10° N
BREEZE M DEB (TANK) 4.3 16:20:19 10° WNW 16:32:26 52° SW 16:35:57 11° SE
Cosmos 2098 Rocket 3.1 16:28:58 10° SSW 16:32:54 78° W 16:37:36 10° N
IRAS Rocket 4.4 16:27:57 10° SE 16:33:12 48° ENE 16:38:27 10° N
GEOS 3 Rocket 4.0 16:29:20 18° NE 16:33:18 63° NW 16:38:36 10° WSW
Cosmos 1697 Rocket 3.1 16:33:23 10° S 16:38:32 39° ESE 16:40:11 32° ENE
Cosmos 990 Rocket 4.5 16:34:39 10° SSE 16:39:18 36° ESE 16:40:07 34° E
Meteor 1-20 Rocket 4.2 16:37:07 10° NNW 16:42:37 79° W 16:48:03 10° S
Gbstr 26 Del rocket 4.4 16:40:46 10° S 16:43:27 19° SE 16:43:27 19° SE
USA 290 3.2 16:44:32 10° NW 16:47:42 47° WSW 16:50:50 10° S
BREEZE-M DEB (TANK) 3.8 16:51:29 10° W 16:54:53 75° N 16:59:05 31° E
NOSS 2-2 (C) 4.1 16:53:15 10° W 16:55:59 28° NW 16:56:15 28° NNW
NOSS 3-2 (C) 3.1 16:55:45 10° SSW 17:00:47 69° SE 17:02:36 43° ENE
Cosmos 2151 4.2 16:57:58 10° NNW 17:01:52 41° W 17:05:47 10° SSW
Cosmos 1655 Rocket 3.9 16:56:15 10° N 17:02:32 78° E 17:08:45 10° SSE
NOSS 3-2 (A) 3.6 16:57:31 10° WSW 17:02:39 61° NW 17:05:38 30° NNE
Cosmos 2082 4.3 16:57:46 10° NNW 17:02:38 36° NE 17:02:38 36° NE
Cosmos 1606 Rocket 3.4 16:58:39 10° S 17:03:03 87° E 17:04:46 37° NNE
Cosmos 1538 Rocket 4.0 16:59:40 10° NNW 17:04:51 54° ENE 17:05:21 52° E
BlueWalker 3 4.1 17:03:45 10° W 17:06:35 22° SW 17:08:45 13° S
Cosmos 1076 Rocket 3.3 17:04:03 10° N 17:08:22 79° E 17:12:40 10° SSE
ATLAS CENTAUR R/B 3.3 17:06:11 10° WNW 17:08:41 21° WSW 17:11:07 10° S
Okean 1-7 Rocket 4.4 17:05:42 10° NNW 17:09:58 49° W 17:14:10 10° SSW
Resurs 1-3 3.5 17:05:45 10° SSE 17:10:02 86° WSW 17:14:23 10° NNW
Cosmos 2297 Rocket 3.5 17:06:13 10° NW 17:11:31 41° WSW 17:16:46 10° S
Lacrosse 4 Rocket 3.6 17:10:07 10° WNW 17:12:50 17° NW 17:14:13 15° N
Meteor 2-20 4.3 17:07:38 10° S 17:13:44 67° E 17:17:46 22° NNE
Cosmos 1656 4.4 17:09:38 10° SW 17:15:06 50° NW 17:18:29 23° NNE
Cosmos 1503 Rocket 4.1 17:10:49 10° SSW 17:16:03 75° WNW 17:18:11 36° NNE
Cosmos 1461 3.2 17:12:21 10° SSW 17:15:27 53° SSW 17:15:27 53° SSW
OceanSat 1 rocket 4.5 17:11:43 10° SSE 17:16:29 89° ENE 17:21:14 10° NNW
Meteor 2-10 3.9 17:14:28 10° N 17:19:46 71° ENE 17:20:56 53° SE
Cosmos 1354 Rocket 3.9 17:17:36 10° SSW 17:22:53 89° WNW 17:23:57 59° NNE
SKYMED 2 3.9 17:23:07 43° NNW 17:24:20 63° WNW 17:28:37 10° SSW
Cosmos 2219 3.3 17:20:00 10° NNW 17:25:10 55° NNE 17:25:10 55° NNE
Spot 4 Rocket 4.4 17:20:45 10° S 17:25:47 62° WSW 17:30:53 10° NNW
Meteor 1-5 Rocket 4.4 17:22:17 10° NNW 17:27:34 67° W 17:32:56 10° S
COSMO-SKYMED 1 3.2 17:29:12 45° SSW 17:29:12 45° SSW 17:32:07 10° SSW
PSLV R/B 3.9 17:28:53 54° SW 17:29:20 58° WSW 17:33:20 10° NNW
Lacrosse 5 rocket 2.8 17:26:07 10° WNW 17:28:28 27° NW 17:28:28 27° NW
Cosmos 1726 Rocket 3.8 17:25:06 10° SSW 17:29:44 71° WNW 17:30:23 61° NNW
Meteor 2-20 Rocket 4.3 17:30:02 10° S 17:36:17 71° E 17:36:20 71° E
CZ-4C R/B 3.6 17:30:37 10° NW 17:37:26 54° SW 17:45:45 10° SSE
Resurs 01 Rocket 4.1 17:42:49 12° NNW 17:42:49 12° NNW 17:43:07 10° NNW
Cosmos 1980 Rocket 3.2 17:34:33 10° S 17:37:44 33° S 17:37:44 33° S
Cosmos 1867 4.5 17:35:58 10° NW 17:41:10 46° WSW 17:44:00 25° S
YAOGAN 1 3.9 17:39:57 10° SSW 17:43:57 38° W 17:47:57 10° NNW
Cosmos 1844 Rocket 4.3 17:42:37 10° NNW 17:44:55 21° N 17:44:55 21° N
Cosmos 2263 Rocket 2.3 17:47:55 10° NNW 17:53:35 71° WSW 17:53:46 70° SW
CENTAUR R/B 3.9 17:53:25 10° WNW 17:59:17 33° NNW 18:00:51 31° NNE
USA 238 DEB 4.2 17:54:22 10° SSW 17:58:22 42° S 17:58:22 42° S
USA 238 4.2 17:54:28 10° SSW 17:58:26 41° S 17:58:26 41° S
Nadezhda 2 Rocket 4.5 17:56:06 10° NNW 18:01:58 76° WNW 18:01:58 76° WNW
Cosmos 2227 Rocket 3.5 17:57:14 10° NW 18:02:24 37° WSW 18:06:42 14° S
USA 215 3.1 18:04:26 83° N 18:04:26 83° N 18:10:53 10° WNW
USA 281 4.2 18:11:46 34° N 18:11:46 34° N 18:15:32 10° NNW
Cosmos 1697 Rocket 3.7 18:17:06 10° WSW 18:21:56 43° WNW 18:21:56 43° WNW
